This demonstration page uses our WeatherBlox Daily Observations layout. Learn more.

Left ArrowRight Arrow

40.92501, -98.34201

Hourly Observations for August 8, 2020

Temp ( °F °C ) Dew Point ( °F °C ) Humidity (%) Winds ( mph kmh ) Pressure ( in mb ) Visibility ( mi km ) Precip ( " mm )
12:53 am 00:53 Clear 77 25 72 22.2 85 85 SSE 8 13 29.86 1011 8 13 0.00 0.00
1:53 am 01:53 Clear 76 24.4 72 22.2 88 88 SSE 9 15 29.86 1011 8 13 0.00 0.00
2:53 am 02:53 Clear 75 23.9 71 21.7 88 88 SSE 12 19 29.86 1011 7 11 0.00 0.00
3:53 am 03:53 Clear with Mist and Fog 74 23.3 70 21.1 88 88 SSE 9 15 29.86 1011 6 10 0.00 0.00
4:28 am 04:28 Mostly Clear with Mist and Fog 73 22.8 70 21.1 90 90 SSE 8 13 29.82 1010 5 8 0.00 0.00
4:53 am 04:53 Mostly Clear with Mist and Fog 73 22.8 70 21.1 90 90 SE 8 13 29.85 1011 5 8 0.00 0.00
5:10 am 05:10 Mostly Cloudy with Mist and Fog 73 22.8 70 21.1 90 90 SSE 7 11 29.82 1010 4 6 0.00 0.00
5:53 am 05:53 Mostly Cloudy with Mist and Fog 72 22.2 69 20.6 91 91 SSE 7 11 29.85 1011 4 6 0.00 0.00
6:21 am 06:21 Cloudy with Mist and Fog 72 22.2 69 20.6 91 91 SSE 8 13 29.83 1010 3 5 0.00 0.00
6:32 am 06:32 Cloudy with Mist and Fog 72 22.2 69 20.6 91 91 SSE 9 15 29.83 1010 2 3 0.00 0.00
6:44 am 06:44 Cloudy with Fog 72 22.2 69 20.6 91 91 SE 12 19 29.82 1010 0 0 0.00 0.00
6:53 am 06:53 Cloudy with Fog 72 22.2 69 20.6 91 91 SE 14 22 29.85 1011 0 0 0.00 0.00
7:20 am 07:20 Cloudy with Fog 72 22.2 70 21.1 94 94 S 10 17 29.85 1011 1 1 0.00 0.00
7:53 am 07:53 Cloudy with Mist and Fog 72 22.2 70 21.1 94 94 SSE 9 15 29.88 1012 1 2 0.00 0.00
8:12 am 08:12 Cloudy with Mist and Fog 72 22.2 70 21.1 94 94 S 13 20 29.86 1011 3 4 0.00 0.00
8:28 am 08:28 Cloudy with Mist and Fog 73 22.8 70 21.1 90 90 S 10 17 29.86 1011 3 5 0.00 0.00
8:50 am 08:50 Cloudy with Mist and Fog 73 23 70 21 89 89 S 12 19 29.86 1011 4 6 0.00 0.00
8:53 am 08:53 Cloudy with Mist and Fog 73 22.8 70 21.1 90 90 S 10 17 29.90 1013 4 6 0.00 0.00
9:53 am 09:53 Cloudy with Mist and Fog 74 23.3 70 21.1 88 88 SE 14 22 29.90 1012 5 8 0.00 0.00
10:53 am 10:53 Cloudy 76 24.4 70 21.1 82 82 SE 8 13 29.91 1013 7 11 0.00 0.00
11:22 am 11:22 Partly Cloudy 79 26.1 71 21.7 77 77 SSE 10 17 29.85 1011 8 13 0.00 0.00
11:53 am 11:53 Sunny 82 27.8 72 22.2 72 72 SE 10 17 29.89 1012 10 16 0.00 0.00
12:53 pm 12:53 Sunny 87 30.6 74 23.3 65 65 SSE 12 19 29.87 1011 10 16 0.00 0.00
1:53 pm 13:53 Sunny 90 32.2 75 23.9 62 62 SSE 12 19 29.86 1011 10 16 0.00 0.00
2:53 pm 14:53 Sunny 90 32.2 77 25 66 66 SSE 10 17 29.86 1011 10 16 0.00 0.00
3:53 pm 15:53 Sunny 91 32.8 76 24.4 61 61 SSE 15 24 29.86 1011 10 16 0.00 0.00
4:53 pm 16:53 Sunny 91 32.8 76 24.4 61 61 SSE 13 20 29.86 1011 10 16 0.00 0.00
5:53 pm 17:53 Sunny 91 32.8 75 23.9 59 59 SSE 12 19 29.86 1011 10 16 0.00 0.00
6:53 pm 18:53 Sunny 89 31.7 76 24.4 65 65 SSE 7 11 29.85 1011 10 16 0.00 0.00
7:53 pm 19:53 Sunny 86 30 75 23.9 70 70 ESE 9 15 29.85 1011 10 16 0.00 0.00
8:53 pm 20:53 Clear 82 27.8 75 23.9 79 79 E 6 9 29.88 1012 9 14 0.00 0.00
9:53 pm 21:53 Clear 81 27.2 74 23.3 79 79 ESE 7 11 29.89 1012 10 16 0.00 0.00
10:53 pm 22:53 Clear 81 27.2 74 23.3 79 79 SE 15 24 29.85 1011 10 16 0.00 0.00
11:53 pm 23:53 Clear 80 26.7 74 23.3 82 82 SE 10 17 29.87 1012 10 16 0.00 0.00

Powered by AerisWeather